Regional Weather Roundup
Issued by NWS

Home | Current Version | Previous Version | Text Only | Print | Product List | Glossary Off
Versions: 1 2 3 4 5 6 7 8 9 10 11 12 13 14 15 16 17 18 19 20 21 22 23 24 25 26 27 28 29 30 31 32 33 34 35 36 37 38 39 40 41 42 43 44 45 46 47 48 49 50

000
ASUS43 KMPX 210401
RWRMN
WEATHER ROUNDUP FOR MINNESOTA
NATIONAL WEATHER SERVICE TWIN CITIES/CHANHASSEN MN
1100 PM CDT THU JUL 20 2017


NOTE: "FAIR" INDICATES FEW OR NO CLOUDS BELOW 12,000 FEET WITH NO
SIGNIFICANT WEATHER AND/OR OBSTRUCTIONS TO VISIBILITY. N/A MEANS
CURRENT SKY AND/OR WEATHER CONDITIONS ARE NOT AVAILABLE.

MNZ060>063-068>070-210500-
   Twin Cities Metro

CITY           SKY/WX    TMP DP  RH WIND       PRES   REMARKS
TWIN CITIES    MOCLDY    78  69  73 E7        29.95F
ST PAUL        PTCLDY    73  69  87 E3        29.96S
CRYSTAL        CLEAR     69  62  78 CALM      29.95S
BLAINE         CLEAR     72  68  88 CALM      29.97R
LAKEVILLE      CLEAR     66  66 100 CALM      29.95F
EDEN PRAIRIE   PTCLDY    75  68  78 NE6       29.94F
SOUTH ST PAUL  PTCLDY    75  71  86 CALM      29.96S
LAKE ELMO      FAIR      70  68  94 CALM      29.98S
$$
MNZ001>005-007-008-013>017-022>024-027-028-210500-
   Northwest Minnesota

CITY           SKY/WX    TMP DP  RH WIND       PRES   REMARKS
BEMIDJI        MOCLDY    64  60  87 CALM      29.98F
HALLOCK        CLOUDY    70  63  78 E7        29.92F
ROSEAU         CLOUDY    66  61  82 CALM      29.96S
WARROAD        CLOUDY    64  61  88 CALM      29.96F
CROOKSTON      CLOUDY    73  63  68 E7        29.94S
FOSSTON        CLOUDY    66  61  82 CALM      29.97S
DETROIT LAKES  CLOUDY    72  68  88 CALM      29.99R
MOORHEAD       CLOUDY    73  66  78 CALM      29.95R
PARK RAPIDS    PTCLDY    76  62  62 CALM      29.97F
MAHNOMEN       FAIR      69  65  89 NE5       29.96R
$$
MNZ006-009>011-018-025>026-210500-
   North Central Minnesota

CITY           SKY/WX    TMP DP  RH WIND       PRES   REMARKS
BAUDETTE       PTCLDY    61  58  90 SE3       29.96F
FLAG ISLAND    CLOUDY    68  63  83 CALM      29.96R HAZE
INTL FALLS     PTCLDY    55  53  93 CALM      29.97S
WASKISH        CLOUDY    63  59  88 CALM      29.97F
BIG FORK         N/A     61  57  88 CALM      29.99S FOG
LONGVILLE      MOCLDY    64  63  94 CALM      29.98S
GRAND RAPIDS   CLEAR     65  63  93 CALM      30.00S
CRANE LAKE     CLEAR     55  54  94 CALM      29.99S
ORR            CLEAR     61  55  82 CALM      29.96S
COOK           CLEAR     63  61  94 CALM      29.99S
WALKER         FAIR      66  62  88 CALM      29.98S
$$
MNZ012-019>021-037-210500-
   Northeast Minnesota

CITY           SKY/WX    TMP DP  RH WIND       PRES   REMARKS
DULUTH         PTCLDY    67  61  81 W7        29.98S
ELY            CLEAR     61  57  88 CALM      29.99S
HIBBING        CLEAR     61  61 100 CALM      29.98S
EVELETH        CLEAR     63  57  81 CALM      30.00S
DULUTH HARBOR  PTCLDY    73  68  83 S7        29.96R
TWO HARBORS    CLEAR     70  61  73 NW3       29.95S
GRAND MARAIS     N/A     69  54  58 N6        29.93S
G MARAIS ARPRT CLEAR     59  52  77 CALM      30.00S
$$
MNZ029>031-032-039>041-046>048-054>057-064-210500-
   West Central Minnesota

CITY           SKY/WX    TMP DP  RH WIND       PRES   REMARKS
FERGUS FALLS   CLOUDY    73  66  78 NE3       29.95R
WHEATON        MOCLDY    72  66  83 SE6       29.96S
MORRIS         PTCLDY    72  68  88 SE6       29.95R
ALEXANDRIA     PTCLDY    72  68  87 E6        29.98F
ELBOW LAKE     FAIR      73  69  86 SE8       29.96S
WADENA         CLOUDY    68  68 100 CALM      29.97S
GLENWOOD       CLOUDY    68  66  94 E5        29.98S
APPLETON       CLOUDY    70  66  88 S3        29.96R
BENSON         PTCLDY    72  66  83 SE3       29.97R
ORTONVILLE     MOCLDY    72  66  83 SE5       29.95S
MADISON        CLEAR     70  70 100 E3        29.96R
WILLMAR        FAIR      72  68  88 E5        29.98R
$$
MNZ033>034-036-042>043-049>051-058-059-210500-
   Central Minnesota

CITY           SKY/WX    TMP DP  RH WIND       PRES   REMARKS
ST CLOUD       CLEAR     67  67 100 NE3       29.97R
SAUK CENTRE    FAIR      68  67  96 CALM      29.98S
PAYNESVILLE    CLOUDY    71  68  92 CALM      29.97S
AITKIN         MOCLDY    63  61  94 CALM      29.97F FOG
PINE RIVER     MOCLDY    66  64  94 CALM      30.01S
BRAINERD       CLOUDY    68  65  90 CALM      29.98S
STAPLES        CLOUDY    68  66  94 CALM      29.98S
LONG PRAIRIE   FAIR      68  66  94 CALM      29.98S
LITTLE FALLS   PTCLDY    66  64  94 CALM      29.98S
LITCHFIELD     CLEAR     73  70  88 CALM      29.97R
BUFFALO        PTCLDY    69  65  88 CALM      29.97S
MAPLE LAKE     CLEAR     69  68  97 CALM      29.97S FOG
HUTCHINSON     CLOUDY    69  68  98 CALM      29.98R
$$
MNZ037-044-045-052-053-210500-
   East Central Minnesota

CITY           SKY/WX    TMP DP  RH WIND       PRES   REMARKS
PRINCETON      CLEAR     66  64  94 CALM      29.98R
MORA           PTCLDY    66  64  94 CALM      29.99S
CAMBRIDGE      CLEAR     70  63  78 CALM      29.96S HAZE
RUSH CITY      CLOUDY    66  64  93 CALM      29.98S
MOOSE LAKE     CLOUDY    63  61  94 CALM      29.96F FOG
HINCKLEY       FAIR      66  66 100 CALM      29.98S
CLOQUET        PTCLDY    68  61  77 CALM      29.98S
MCGREGOR       MOCLDY    68  63  83 CALM      29.99S
$$
MNZ071>073-080-081-089-090-097-098-210500-
   Southwest Minnesota

CITY           SKY/WX    TMP DP  RH WIND       PRES   REMARKS
MONTEVIDEO     CLEAR     70  64  83 CALM      29.97R
GRANITE FALLS  CLEAR     72  69  88 E3        29.98R
CANBY          CLEAR     72  69  90 CALM      29.97R
MARSHALL       CLEAR     73  70  90 S7        29.96R
REDWOOD FALLS  CLEAR     71  68  90 SE6       29.95S
OLIVIA         CLEAR     70  66  88 CALM      29.97R
PIPESTONE      CLEAR     73  70  88 SE6       29.98R
WINDOM         CLEAR     73  70  88 E3        29.97F
WORTHINGTON    CLEAR     73  72  96 E3        29.98S
JACKSON        CLEAR     72  70  94 CALM      29.98S
TRACY          CLEAR     73  71  93 SE5       29.98R
SLAYTON        CLEAR     72  68  88 E6        29.99S
$$
MNZ065>067-074>077-082>085-091>093-210500-
   South Central Minnesota

CITY           SKY/WX    TMP DP  RH WIND       PRES   REMARKS
MANKATO        CLEAR     71  69  93 E5        29.97S
NEW ULM        CLEAR     72  70  94 SE3       29.96S
ST JAMES       CLEAR     72  70  94 CALM      29.97F
FAIRMONT       CLOUDY    73  71  93 E3        29.96F
GLENCOE        CLEAR     71  69  95 CALM      29.95S
FARIBAULT      CLEAR     70  68  94 S3        29.97S
OWATONNA       CLEAR     72  70  94 CALM      29.97F
WASECA         CLEAR     70  68  94 SE5       29.98S
ALBERT LEA     CLEAR     73  70  88 E6        29.96F
$$
MNZ078>079-086>088-094>096-210500-
   Southeast Minnesota

CITY           SKY/WX    TMP DP  RH WIND       PRES   REMARKS
ROCHESTER      CLEAR     69  68  96 SE5       29.99F
RED WING       CLEAR     68  66  94 CALM      29.95F
STANTON        CLEAR     69  65  89 CALM      29.94F
DODGE CENTER   CLEAR     66  66 100 SE3       29.99F
WINONA         CLEAR     70  68  94 CALM      29.97F
AUSTIN         CLEAR     70  66  88 E5        29.97F
PRESTON        CLEAR     72  69  90 E5        29.99F
$$
ABBREVIATIONS USED IN REMARKS
   TC - TEMPERATURES IN CELSIUS
  WCI - WIND CHILL INDEX
   HX - HEAT INDEX
  VSB - VISIBILITY
$$




USA.gov is the U.S. government's official web portal to all federal, state and local government web resources and services.